Location: Grandview
(34.8900°N, 117.1058°W)
Time: 11:30:22
(UTC-07:00)

Envisat - Pass Details

Date: 16 October 2017
Orbit: 764 x 766 km, 98.2° (Epoch: 18 October)

Event Time Altitude Azimuth Distance (km) Brightness Sun altitude
Exits shadow 19:26:29 13° 41° (NE) 2,132 4.9 -16.1°
Drops below altitude 10° 19:27:24 10° 31° (NNE) 2,304 5.2 -16.2°
Sets 19:30:39 0° 9° (N) 3,235 6.2 -16.9°
